Location: Moydans
(44.3997°N, 5.5038°E)
Time: 08:04:18
(UTC+02:00)

Envisat - Pass Details

Date: 30 September 2021
Orbit: 764 x 766 km, 98.2° (Epoch: 23 October)

Event Time Altitude Azimuth Distance (km) Brightness Sun altitude
Rises 06:11:08 0° 21° (NNE) 3,239 6.7 -15.7°
Reaches altitude 10° 06:13:37 10° 29° (NNE) 2,308 6.1 -15.2°
Maximum altitude 06:18:19 37° 97° (E) 1,182 4.6 -14.4°
Drops below altitude 10° 06:22:58 10° 164° (SSE) 2,292 5.6 -13.6°
Sets 06:25:26 0° 172° (S) 3,213 6.2 -13.2°
